Regional Weather Roundup
Issued by NWS

Home | Current Version | Previous Version | Graphics & Text | Print | Product List | Glossary On
Versions: 1 2 3 4 5 6 7 8 9 10 11 12 13 14 15 16 17 18 19 20 21 22 23 24 25 26 27 28 29 30 31 32 33 34 35 36 37 38 39 40 41 42 43 44 45 46 47 48 49 50
000
ASUS45 KBOU 290307
RWRCO

WEATHER ROUNDUP FOR COLORADO
NATIONAL WEATHER SERVICE DENVER/BOULDER CO
900 PM MDT THU MAY 28 2015

NOTE: "FAIR" INDICATES FEW OR NO CLOUDS BELOW 12000 FEET WITH NO
SIGNIFICANT WEATHER AND/OR OBSTRUCTIONS TO VISIBILITY.

COZ001>005-013-030-031-290400-
...NORTHWEST COLORADO...

CITY           SKY/WX    TMP DP  RH WIND       PRES   REMARKS
CRAIG          CLOUDY    46  40  79 S12       30.20S
HAYDEN         CLOUDY    45  39  81 N5        30.22R
MEEKER         MOCLDY    47  40  76 E6        30.24R
MOUNT WERNER   NOT AVBL
STEAMBOAT SPGS CLOUDY    43  40  88 E3        30.23F
WALDEN         MOCLDY    41  36  81 SE6       30.23R
$$

COZ006>008-011-290400-
...WEST CENTRAL VALLEYS...

CITY           SKY/WX    TMP DP  RH WIND       PRES   REMARKS
GRAND JUNCTION MOCLDY    58  44  60 NE3       30.12R
MONTROSE       PTCLDY    53  42  66 SE24G35   30.19S
EAGLE          PTCLDY    61  46  59 S5        30.21S
RIFLE          CLEAR     55  41  59 NW3       30.18R
DELTA          PTCLDY    59  43  54 E7        30.17R
NUCLA          PTCLDY    54  45  71 E13       30.21S
$$

COZ017>023-064>068-290400-
...SOUTHWEST COLORADO...

CITY           SKY/WX    TMP DP  RH WIND       PRES   REMARKS
DURANGO        PTCLDY    57  37  47 N17G29    30.16R
CORTEZ         CLEAR     56  41  57 NE6       30.15R
PAGOSA SPRINGS PTCLDY    54  34  47 NE8       30.22R
TELLURIDE      MOCLDY    42  40  92 CALM      30.35F
WOLF CREEK PAS NOT AVBL
$$

COZ009-010-012-014-032>034-037-058>063-290400-
...CENTRAL COLORADO...

CITY           SKY/WX    TMP DP  RH WIND       PRES   REMARKS
ASPEN          PTCLDY    43  39  86 SW5       30.25S
BUENA VISTA    PTCLDY    45  37  72 W8        30.23R
COPPER MTN     MOCLDY    34  30  86 W13G23    30.38S WCI  25
BERTHOUD PASS  FAIR      27  19  74 NW38G44   30.33F HAZE    WCI   9
COTTONWOOD PAS PTCLDY    43  32  65 N5        30.30R
GUNNISON       MOCLDY    48  37  66 S7        30.30R
KREMMLING      MOCLDY    46  36  66 CALM      30.24R
LEADVILLE      PTCLDY    36  35  96 N8        30.29F
MONARCH PASS   FOG       32  30  93 W40       30.48R VSB 1   WCI  16
SALIDA         PTCLDY    53  36  53 N13G21    30.28R
SUNLIGHT       PTCLDY    36  32  87 CALM      30.40S
WILKERSON PASS PTCLDY    36  27  69 W7        30.38S
$$

COZ069>075-290400-
...SAN LUIS VALLEY/SANGRE DE CRISTO MOUNTAINS...

CITY           SKY/WX    TMP DP  RH WIND       PRES   REMARKS
ALAMOSA        PTCLDY    55  34  45 N15       30.20R
LA VETA PASS   CLOUDY   N/A N/A N/A MISG      30.31R
SAGUACHE       PTCLDY    50  36  57 NW18G29   30.25R
$$

COZ035-036-038>040-290400-
...NORTHERN COLORADO FRONT RANGE...

CITY           SKY/WX    TMP DP  RH WIND       PRES   REMARKS
DENVER INTL AP TSTM      56  49  77 E10       30.09R
DMNS CITY PARK   N/A     61  37  41 N9G18     30.08R
AURORA         MOCLDY    55  50  83 E7        30.11R
FRONT RANGE AP TSTM      57  50  77 SE7       30.14
ERIE MUNI ARPT MOCLDY    59  40  49 W6        30.08R
BOULDER MUN AP MOCLDY    61  37  41 SW8       30.08R
CENTENNIAL     CLOUDY    56  49  77 SE5       30.11R
BROOMFIELD     MOCLDY    59  36  41 W20G29    30.09R
FORT COLLINS   CLOUDY    61  50  67 SW9G18    30.09R
LONGMONT       CLOUDY    65  35  32 SW10      30.08S
$$

COZ041-046-047-076>085-087-088-290400-
...PIKES PEAK/PALMER DIVIDE AND SOUTHERN FOOTHILLS...

CITY           SKY/WX    TMP DP  RH WIND       PRES   REMARKS
COLO. SPRINGS  MOCLDY    55  48  77 E8        30.12R THUNDER
A. F. ACADEMY  CLOUDY    55  46  71 NE13G21   30.14R
ELLICOTT         N/A    N/A N/A N/A NE16G24   30.11R THUNDER
FALCON         CLOUDY    52  46  81 E54G97    30.16R
FORT CARSON    LGT RAIN  59  46  63 E13G22    30.10R
LIMON          CLOUDY    50  48  93 CALM      30.07F
MONUMENT HILL  TSTM      50  45  81 W7        30.19R
TRINIDAD       MOCLDY    60  49  66 S9        30.03S
$$

COZ042>045-048>051-090-091-290400-
...NORTHEAST COLORADO...

CITY           SKY/WX    TMP DP  RH WIND       PRES   REMARKS
GREELEY ARPT   CLOUDY    61  48  63 NE3       30.07R
AKRON          LGT RAIN  55  51  86 NW20G31   30.07R
BURLINGTON     CLOUDY    57  50  77 E7        30.01S
WRAY           CLOUDY    57  51  82 CALM      30.00R
STERLING       CLOUDY    57  52  82 W16       30.03R
HOLYOKE        CLOUDY    59  52  77 SW7       29.98R
FORT MORGAN    CLOUDY    54  49  82 NE9       30.05F
$$

COZ086-089-092>099-290400-
...SOUTHEAST COLORADO...

CITY           SKY/WX    TMP DP  RH WIND       PRES   REMARKS
PUEBLO         MOCLDY    58  52  80 NE5       30.03R
LA JUNTA       PTCLDY    60  49  66 SE13      29.99R
LAMAR          CLOUDY    59  49  69 SE13      29.91F
SPRINGFIELD      N/A     57  50  77 N10       30.02S
$$


USA.gov is the U.S. government's official web portal to all federal, state and local government web resources and services.